FW6820 Weather Reports


Display with metric or nautical units.
time (UTC)temp
F
wind
direction
speed
MPH
gust
MPH
rain 1hr
in
rain 24hr
in
rain mn
in
humidity
%
barometer
mb
20260902230051 100 152 12.0 21.0 0.00 0.00 0.00 44 1009.8
20260902224545 100 112 11.0 20.0 0.00 0.00 0.00 45 1009.7
20260902223043 101 117 9.0 16.0 0.00 0.00 0.00 46 1009.7
20260902221553 101 151 9.0 19.0 0.00 0.00 0.00 47 1009.7
20260902220047 101 159 7.0 18.0 0.00 0.00 0.00 46 1009.5
20260902214543 101 117 10.0 19.0 0.00 0.00 0.00 46 1009.7
20260902213049 101 360 4.0 19.0 0.00 0.00 0.00 45 1009.9
20260902211553 102 114 10.0 17.0 0.00 0.00 0.00 43 1010.1
20260902210114 102 134 4.0 16.0 0.00 0.00 0.00 39 1010.3
20260902204550 101 142 8.0 18.0 0.00 0.00 0.00 39 1010.5
20260902203050 102 155 9.0 14.0 0.00 0.00 0.00 39 1010.8
20260902201600 102 228 6.0 18.0 0.00 0.00 0.00 41 1011.0
20260902200043 100 146 5.0 16.0 0.00 0.00 0.00 42 1011.4
20260902194544 100 129 6.0 16.0 0.00 0.00 0.00 44 1011.8
20260902193049 100 101 10.0 19.0 0.00 0.00 0.00 45 1012.0
20260902191551 100 153 7.0 14.0 0.00 0.00 0.00 44 1012.1
20260902190054 99 135 8.0 18.0 0.00 0.00 0.00 48 1012.3
20260902184554 99 119 5.0 15.0 0.00 0.00 0.00 49 1012.4
20260902183050 99 98 4.0 16.0 0.00 0.00 0.00 49 1012.7
20260902181559 98 139 8.0 16.0 0.00 0.00 0.00 51 1013.1
20260902180106 97 153 7.0 16.0 0.00 0.00 0.00 53 1013.3
20260902174555 96 105 4.0 16.0 0.00 0.00 0.00 56 1013.6
20260902173044 95 96 3.0 17.0 0.00 0.00 0.00 57 1013.9
20260902171554 95 121 8.0 20.0 0.00 0.00 0.00 57 1014.1
20260902170049 94 133 7.0 15.0 0.00 0.00 0.00 59 1014.2
20260902164543 93 127 10.0 18.0 0.00 0.00 0.00 59 1014.3
20260902163043 93 126 5.0 14.0 0.00 0.00 0.00 61 1014.4
20260902161554 91 167 10.0 17.0 0.00 0.00 0.00 63 1014.5
20260902160052 91 139 10.0 18.0 0.00 0.00 0.00 65 1014.6
20260902154543 90 184 9.0 20.0 0.00 0.00 0.00 66 1014.5
20260902153051 89 127 8.0 19.0 0.00 0.00 0.00 68 1014.5
20260902151548 88 163 8.0 20.0 0.00 0.00 0.00 71 1014.4
20260902150041 87 149 13.0 19.0 0.00 0.00 0.00 72 1014.4
20260902144600 86 122 11.0 19.0 0.00 0.00 0.00 75 1014.6
20260902143052 85 139 11.0 18.0 0.00 0.00 0.00 77 1014.5
20260902141541 85 138 9.0 20.0 0.00 0.00 0.00 80 1014.5
20260902140041 84 123 10.0 19.0 0.00 0.00 0.00 81 1014.5
20260902134549 83 165 11.0 16.0 0.00 0.00 0.00 83 1014.5
20260902133048 82 155 8.0 13.0 0.00 0.00 0.00 84 1014.5
20260902131544 82 136 5.0 9.0 0.00 0.00 0.00 85 1014.3
20260902130043 82 174 5.0 11.0 0.00 0.00 0.00 85 1014.2
20260902124542 82 137 7.0 13.0 0.00 0.00 0.00 85 1014.0
20260902123051 82 158 6.0 11.0 0.00 0.00 0.00 85 1013.7
20260902121544 82 157 5.0 11.0 0.00 0.00 0.00 84 1013.8
20260902120046 82 154 6.0 12.0 0.00 0.00 0.00 84 1013.9
20260902114545 82 146 9.0 13.0 0.00 0.00 0.00 84 1013.8
20260902113049 82 155 7.0 12.0 0.00 0.00 0.00 84 1013.7
20260902111547 82 157 7.0 17.0 0.00 0.00 0.00 84 1013.8
20260902110041 82 134 8.0 17.0 0.00 0.00 0.00 83 1013.5
20260902104542 82 136 8.0 14.0 0.00 0.00 0.00 83 1013.6
20260902103045 82 143 8.0 13.0 0.00 0.00 0.00 83 1013.6
20260902101541 83 142 8.0 14.0 0.00 0.00 0.00 82 1013.6
20260902100041 83 178 7.0 14.0 0.00 0.00 0.00 82 1013.6
20260902094558 83 149 9.0 17.0 0.00 0.00 0.00 82 1013.7
20260902093052 83 134 9.0 16.0 0.00 0.00 0.00 82 1013.7
20260902091559 83 145 7.0 16.0 0.00 0.00 0.00 82 1013.7
20260902090048 83 149 9.0 19.0 0.00 0.00 0.00 81 1013.7
20260902084543 83 146 9.0 19.0 0.00 0.00 0.00 81 1013.6
20260902083045 83 175 10.0 18.0 0.00 0.00 0.00 80 1013.7
20260902081542 83 128 10.0 16.0 0.00 0.00 0.00 80 1013.8
20260902080109 84 161 11.0 18.0 0.00 0.00 0.00 80 1014.0
20260902074548 84 149 11.0 19.0 0.00 0.00 0.00 80 1014.1
20260902073043 84 138 9.0 19.0 0.00 0.00 0.00 80 1014.1
20260902071543 84 153 11.0 19.0 0.00 0.00 0.00 79 1014.3
20260902070043 84 132 9.0 19.0 0.00 0.00 0.00 78 1014.4
20260902064549 84 142 12.0 22.0 0.00 0.00 0.00 78 1014.6
20260902063047 84 150 13.0 23.0 0.00 0.00 0.00 80 1014.9
20260902061552 84 124 7.0 16.0 0.00 0.00 0.00 80 1014.8
20260902060042 84 125 8.0 20.0 0.00 0.00 0.00 80 1014.8
20260902054542 84 144 10.0 17.0 0.00 0.00 0.00 80 1014.7
20260902053054 84 141 9.0 18.0 0.00 0.00 0.00 79 1014.7
20260902051547 84 156 8.0 15.0 0.00 0.00 0.00 79 1014.8
20260902050043 85 122 9.0 19.0 0.00 0.00 0.00 79 1014.7
20260902044543 85 141 10.0 17.0 0.00 0.00 0.00 78 1014.7
20260902043051 85 138 10.0 17.0 0.00 0.00 0.00 77 1014.9
20260902041551 85 132 9.0 17.0 0.00 0.00 0.00 77 1014.7
20260902040043 86 92 9.0 18.0 0.00 0.00 0.00 76 1014.4
20260902034555 86 130 7.0 17.0 0.00 0.00 0.00 76 1014.3
20260902033057 86 146 10.0 22.0 0.00 0.00 0.00 75 1014.2
20260902031552 87 130 12.0 20.0 0.00 0.00 0.00 74 1014.0
20260902030043 87 97 10.0 22.0 0.00 0.00 0.00 72 1013.7
20260902024546 88 133 12.0 19.0 0.00 0.00 0.00 70 1013.4
20260902023049 88 109 11.0 19.0 0.00 0.00 0.00 69 1013.0
20260902021549 89 127 11.0 22.0 0.00 0.00 0.00 66 1012.5
20260902020044 90 109 9.0 23.0 0.00 0.00 0.00 64 1012.2
20260902014542 91 117 9.0 17.0 0.00 0.00 0.00 62 1012.0
20260902013041 92 119 10.0 20.0 0.00 0.00 0.00 59 1011.9
20260902011539 93 112 6.0 16.0 0.00 0.00 0.00 56 1011.6
20260902010046 93 130 8.0 18.0 0.00 0.00 0.00 53 1011.5
20260902004543 94 360 8.0 18.0 0.00 0.00 0.00 51 1011.4
20260902003043 96 142 7.0 21.0 0.00 0.00 0.00 48 1011.0
20260902001542 97 125 9.0 18.0 0.00 0.00 0.00 44 1010.9
20260902000041 98 133 11.0 17.0 0.00 0.00 0.00 40 1010.7
20260901234552 98 125 12.0 19.0 0.00 0.00 0.00 39 1010.5
20260901233045 99 121 11.0 19.0 0.00 0.00 0.00 40 1010.5
20260901231541 99 127 12.0 19.0 0.00 0.00 0.00 39 1010.4